www.pogodaiklimat.ru

Погода и климат >> Архив погоды >> Канада >> Eureka Climate


ПОГОДА в Eureka Climate

  • Прогноз погоды в Eureka Climate
  • Монитор погоды в Eureka Climate
  • Климат города

АРХИВ ПОГОДЫ в Eureka Climate

Время (UTC), дата Ветер
(напр.,м/с)
 
Видим.   Явления Облачность Т
(С)
Тd
(С)
f
(%)
Тe
(С)
Тes
(С)
Комфортность P
(гПа)
Po
(гПа)
Тmin
(С)
Tmax
(С)
R
(мм)
R24
(мм)
S
(см)
09 15.10 СВ 1 н/о н/о -20.4 -22.1 86 -21 -21 1006.6 1005.2
12 15.10 СВ 1 н/о н/о -19.6 -21.2 87 -20 -20 1006.2 1004.8 -23.4 -17.4 <0.5
15 15.10 В 1 н/о н/о -18.8 -20.3 88 -19 -19 1005.5 1004.1 0.2
18 15.10 В 1 н/о {осадки} н/о -18.0 -19.4 89 -21 -21 1004.9 1003.5 -23.4 -17.9 0.7
21 15.10 СВ 1 н/о н/о -18.5 -20.0 88 -21 -21 1004.8 1003.4 0.2
00 16.10 СВ 1 н/о {осадки} н/о -21.9 -23.6 86 -25 -25 1004.4 1003.0 -22.5 -17.9 0.2
03 16.10 В 1 н/о н/о -19.2 -20.8 87 -22 -22 1003.5 1002.1 0.2
06 16.10 ЮВ 1 н/о {осадки} н/о -17.6 -19.0 89 -18 -18 1002.9 1001.6 -22.5 -17.6 0.9
09 16.10 С 1 н/о н/о -18.9 -20.4 88 -19 -19 1002.6 1001.3
12 16.10 В 1 н/о н/о -19.7 -21.2 88 -20 -20 1003.2 1001.8 -22.4 -17.6 2
15 16.10 ЮВ 1 н/о н/о -23.8 -26.0 82 -25 -25 1003.3 1001.9
18 16.10 В 1 н/о н/о -20.9 -22.6 86 -22 -22 1003.3 1001.9 -24.1 -17.3
21 16.10 В 1 н/о н/о -19.9 -21.6 86 -21 -21 1004.0 1002.6
00 17.10 ЮВ 1 н/о н/о -20.0 -21.7 86 -21 -21 1004.5 1003.1 -24.1 -19.0
03 17.10 ЮВ 1 н/о н/о -18.9 -20.4 88 -19 -19 1004.6 1003.2
06 17.10 штиль 0 н/о {осадки} н/о -17.8 -19.2 89 -18 -18 1004.4 1003.0 -24.1 -17.3 0.2
09 17.10 штиль 0 н/о н/о -17.3 -18.7 89 -17 -17 1004.4 1003.0
12 17.10 В 1 н/о н/о -16.1 -17.3 90 -17 -17 1004.0 1002.7 -20.6 -17.3 3
15 17.10 В 1 н/о {осадки} н/о -15.9 -17.1 90 -16 -16 1003.2 1001.9 0.4
18 17.10 штиль 0 н/о {осадки} н/о -15.5 -16.7 90 -16 -16 1003.0 1001.7 -21.2 -15.5 0.6
21 17.10 штиль 0 н/о н/о -15.8 -17.0 90 -16 -16 1002.8 1001.5
00 18.10 В 1 н/о н/о -21.3 -23.1 85 -22 -22 1003.1 1001.8 -21.4 -15.5
03 18.10 ЮВ 1 н/о н/о -25.2 -27.5 81 -26 -26 1003.3 1001.9
06 18.10 В 1 н/о н/о -24.7 -26.8 83 -26 -26 1003.5 1002.1 -27.1 -15.5
09 18.10 штиль 0 н/о н/о -26.9 -29.3 80 -27 -27 1004.1 1002.7
12 18.10 ЮВ 1 н/о н/о -27.3 -29.8 79 -28 -28 1004.8 1003.4 -28.2 -15.5 3
15 18.10 ЮВ 1 н/о н/о -23.7 -25.8 83 -27 -27 1004.7 1003.3
21 18.10 ЮВ 2 н/о н/о -18.8 -20.3 88 -25 -25 1006.0 1004.6
00 19.10 В 3 н/о н/о -17.9 -19.3 89 -24 -24 1006.9 1005.5 -28.2 -17.5
03 19.10 В 3 н/о н/о -17.4 -18.8 89 -24 -24 1007.4 1006.0
06 19.10 В 1 н/о {осадки} н/о -18.6 -20.1 88 -19 -19 1008.1 1006.7 -28.2 -17.2 0.2
09 19.10 В 1 н/о н/о -17.8 -19.3 88 -21 -21 1008.8 1007.4 0.2
15 19.10 В 4 н/о н/о -16.7 -18.1 89 -24 -24 1008.8 1007.4
18 19.10 СЗ 2 н/о н/о -12.7 -13.6 93 -17 -17 1008.8 1007.5 -20.9 -12.1
21 19.10 СВ 3 н/о н/о -12.6 -13.7 91 -18 -18 1008.7 1007.4
00 20.10 В 4 н/о н/о -17.3 -18.8 88 -26 -26 1008.4 1007.0 -18.8 -11.9
03 20.10 В 2 н/о н/о -18.9 -20.4 88 -25 -25 1007.4 1006.0
06 20.10 В 3 н/о н/о -20.7 -22.3 87 -28 -28 1006.2 1004.9 -22.6 -11.9
09 20.10 В 3 н/о н/о -20.3 -22.0 86 -28 -28 1005.8 1004.5
12 20.10 В 1 н/о н/о -23.8 -25.8 83 -27 -27 1005.5 1004.1 -23.8 -11.9 5
15 20.10 В 1 н/о н/о -24.8 -26.9 83 -26 -26 1005.3 1003.9
18 20.10 В 2 н/о н/о -23.5 -25.5 84 -30 -30 1005.6 1004.2 -26.0 -19.5
21 20.10 штиль 0 н/о н/о -25.0 -27.2 82 -25 -25 1006.4 1005.0
00 21.10 В 2 н/о н/о -26.5 -28.8 81 -32 -32 опасность
обморожения
1007.9 1006.5 -26.9 -22.0
03 21.10 В 2 н/о н/о -25.5 -27.7 82 -32 -32 опасность
обморожения
1009.3 1007.9
06 21.10 В 2 н/о н/о -24.7 -26.9 82 -31 -31 опасность
обморожения
1011.1 1009.7 -26.9 -19.5 0.2
09 21.10 В 3 н/о н/о -25.4 -27.7 81 -33 -33 опасность
обморожения
1013.3 1011.9
12 21.10 В 3 н/о н/о -25.4 -27.6 82 -33 -33 опасность
обморожения
1014.9 1013.5 -26.5 -19.5 5
15 21.10 В 3 н/о н/о -26.8 -29.1 81 -36 -36 опасность
обморожения
1016.6 1015.2
18 21.10 В 3 н/о н/о -25.1 -27.3 82 -33 -33 опасность
обморожения
1017.6 1016.2 -27.7 -24.0
21 21.10 В 1 н/о н/о -26.8 -29.1 81 -31 -31 опасность
обморожения
1018.9 1017.5
00 22.10 ЮВ 1 н/о н/о -24.2 -26.3 83 -28 -28 1019.7 1018.3 -28.2 -24.2
03 22.10 В 1 н/о н/о -23.7 -25.8 83 -27 -27 1020.3 1018.9

 

Местоположение метеостанции Eureka Climate (Канада): широта 79.99 долгота -85.93 высота над уровнем моря 10 м.

В архиве по умолчанию представлена погода в Eureka Climate за последнюю неделю. Архивные данные за месяц целиком и за предыдущие месяцы, начиная с января 2011 года, Вы можете получить, выбрав интересующий диапазон дат из раскрывающегося списка и нажав кнопку "Ввод!".


*Определитесь, кто Вы:
робот инопланетянин человек

Внимание! Время в таблицах - всемирное. Для получения местного времени необходимо прибавить поправку, которая в Eureka Climate равна -6 ч.

Смотрите также архив погоды в соседних городах и на ближайших метеорологических станциях:

Погода в Eureka (Канада) (1 км)
Погода в Chris Hadfield (Канада) (343 км)
Погода в Isachsen (aut) (Канада) (383 км)
Погода в Mittarfik Qaanaaq (Гренландия) (453 км)
Погода в Kitsissut (Гренландия) (472 км)
Погода в Alert Climate (Канада) (482 км)
Погода в Resolute Cs (Канада) (624 км)
Погода в Resolute Airport (Канада) (624 км)
Погода в Arctic Bay (Канада) (778 км)
Погода в Pond Inlet Airport (Канада) (836 км)

Пояснения к столбцам:

Ветер - указаны скорость ветра в м/с - средняя за 10 мин, порывы в срок и между сроками (в фигурных скобках) и направление, откуда дует ветер: С - северный, СВ - северо-восточный, В - восточный, ЮВ - юго-восточный, Ю - южный, ЮЗ - юго-западный, З - западный, СЗ - северо-западный.
Видимость - горизонтальная дальность видимости в метрах или километрах. При видимости от 1 до 10 км при отсутствии осадков обычно наблюдается дымка, при ухудшении видимости до 1 км и менее - туман. В сухую погоду видимость может ухудшаться дымом, пылью или мглою.
Явления - указаны атмосферные явления, наблюдавшиеся в срок или в последний час перед сроком; фигурными скобками обозначены явления, наблюдавшиеся между сроками (за 1-3 часа до срока); квадратными скобками обозначены град или гололедные отложения с указанием их диаметра в мм.
Облачность - указаны через наклонную черту общая и нижняя облачность в баллах и высота нижней границы облаков в метрах; квадратными скобками обозначены формы облаков: Ci - перистые, Cs - перисто-слоистые, Cc - перисто-кучевые, Ac - высококучевые, As - высокослоистые, Sc - слоисто-кучевые, Ns - слоисто-дождевые, Cu - кучевые, Cb - кучево-дождевые. Подробнее классификацию облаков см. в Атласе облаков (PDF).
T - Температура воздуха - температура, измеренная на высоте 2 м над землей.
Td - Температура точки росы - температура, при понижении до которой содержащийся в воздухе водяной пар достигнет насыщения.
f - Относительная влажность воздуха - влажноcть воздуха, измеренная на высоте 2 м над землей.
Te - Эффективная температура - температура, которую ощущает одетый по сезону человек в тени. Характеристика душности погоды. При расчете учитывается влияние влажности воздуха и скорости ветра на теплоощущения человека.
Tes - Эффективная температура на солнце - температура, которую ощущает человек, с поправкой на солнечный нагрев. Характеристика знойности погоды. Зависит от высоты солнца над горизонтом, облачности и скорости ветра. Ночью, в пасмурную погоду, а также при ветре 12 м/с и более поправка равна нулю.
P - Атмосферное давление - приведенное к уровню моря атмосферное давление.
Po - Атмосферное давление - измеренное на уровне метеостанции атмосферное давление.
Tmin - Минимальная температура - минимум температуры воздуха на высоте 2 м над землей.
Tmax - Максимальная температура - максимум температуры воздуха на высоте 2 м над землей.
R - Количество осадков - Количество выпавших осадков за период времени, мм. При наведении курсора мыши на число - период времени, за который выпало указанное количество осадков.
R24 - Количество осадков - Количество выпавших осадков за 24 часа, мм.
S - Снежный покров - Высота снежного покрова, см. При наведении курсора мыши на число - состояние снежного покрова и степень покрытия местности в баллах.